Showing default

COSMOS 2216, 22187

Orbit data source: Space-Track

COSMOS 2216, 22187 is a payload satellite owned by VKS (CIS) in LEO that was launched on Tue, 20 Oct 1992 UTC via a TSIKLON-3 launch vehicle from the Plesetsk Missile And Space Complex (PKMTR). Payload-class satellites include a variety of spacecraft equipped with specific instruments for various scientific and technological missions. These include communications satellites like Starlink; space stations such as the ISS; scientific satellites like the Hubble; Earth observation satellites from companies like Planet Labs, Umbra, and HawkEye 360; GPS; miniature CubeSats for education and research; and military/defense satellites.

Loading next visibility...
Identifier
22187, 1992-068F
Orbit
LEO
Country
Flag of CISCIS
Related business
Manufacturer
NPO PM
Mission
Defense Communications
Bus & Motor
STRELA-3, Unknown motor
Mass
225 kg wet, 225 kg dry
Launch date (UTC)
1992-10-20 (34 years ago)
Launch vehicle
TSIKLON-3
Launch site
Plesetsk Missile And Space Complex (PKMTR)
Object type
Payload
Rocket body
Debris
Shape & HBR
Cyl, 0.8 m
Radar Cross Section
1.257 m², Medium (>0.1 m² and < 1m²)

Expand to show TLE details & history
Last TLE update: 9 hours ago

TLE from 9 hours ago
0 COSMOS 2216
1 22187U 92068F   26126.10753333  .00000026  00000-0  88261-4 0  9994
2 22187  82.5998  10.6381 0004394 228.2815 131.7901 12.62584556545583
Epoch: 2026-05-06T02:34Z
TLE epoch observation values (Epoch: 2026-05-06T02:34:50.879Z)
Latitude
-0.00002°
Longitude
107.95333°
Altitude
1,417.308 km
Speed
7.151 km/s
True Right ascension
00h 42m 33s
True Declination
0° 00' 00"
Sunlit
Object was in daylight at epoch
Visualization orbit readout
Latitude
Unknown
Longitude
Unknown
Altitude
Unknown
Speed
Unknown
Apparent Right ascension
Unknown
Apparent Declination
Unknown
Sunlit
N/A
Visualization observer readout
Local Sidereal Time
19:49:51
Azimuth
Unknown
Elevation
Unknown
Doppler factor
Unknown
Orbital elements
Apogee altitude
1,413.036 km
Perigee altitude
1,406.192 km
Semi-major axis
7,787.751 km
Eccentricity
0.00044
Inclination
82.5998°
RAAN
10.6381°
Arg. of periapsis
228.2815°
True anomaly
131.82763°
Mean anomaly
131.7901°
Eccentric anomaly
131.80887°
Mean motion
3.15809 °/min
Orbital period
113.99 mins
BSTAR
0.000088261
Loading maneuver chart data...
Computing Atmospheric mass density...
Loading historical data...
Loading historical data...
Loading historical data...
Loading historical data...
Loading historical data...
Loading historical data...
Loading historical data...

Documentation

Showing up to 5 results
|